Theta_e
310 310 310 310 310 310 310 310 310 310 310 311 311 311 311 311 311 311 311 311 311 311 311 311 311 311 311 311 312 312 313 313 314 315 315 315 315 315 314 313 314 314 313 314 314 314 314 315 315 315 315 315 316 318 317 318 316 318 328 326 320 323 324 324 325 320 316 318 317 316 316 315 317 317 316 317 317 316 316 316 316 315 315 315 315 315 315 315
310 310 310 310 310 310 311 310 310 310 311 311 311 310 310 310 310 310 310 310 311 311 311 311 311 311 311 312 312 312 313 314 314 315 315 314 315 314 314 313 314 314 313 314 314 314 315 315 316 315 315 315 316 317 317 319 316 321 327 320 324 333 325 319 321 316 315 317 316 316 316 315 316 316 315 317 316 316 316 316 316 315 315 315 315 315 315 315
310 310 310 310 310 310 310 311 310 310 310 310 310 310 310 310 310 310 310 311 311 311 311 311 311 311 312 311 312 312 313 314 315 315 314 314 314 314 314 315 315 315 315 314 314 314 315 315 315 315 316 315 316 318 318 319 318 318 320 322 333 329 317 315 316 316 316 316 315 315 315 314 315 315 315 315 315 315 315 315 315 315 316 315 315 315 315 315
310 310 310 310 310 310 310 310 310 310 310 310 310 310 310 310 310 310 311 311 311 311 311 311 311 311 311 311 312 313 313 315 315 314 314 314 314 314 315 316 315 316 315 314 314 314 315 315 315 315 316 315 315 317 318 318 318 316 318 327 329 316 315 318 316 316 316 315 315 314 314 315 315 315 315 315 315 317 315 315 315 315 315 315 315 315 314 315
311 310 310 310 310 310 310 310 310 310 310 310 310 310 310 310 310 311 310 310 311 311 311 311 311 311 311 312 312 313 314 317 316 313 314 314 314 315 316 316 316 316 315 314 314 314 315 315 315 315 316 314 315 316 316 318 317 318 319 321 319 313 316 318 316 318 316 315 315 314 315 316 316 315 315 315 316 317 316 316 316 315 315 314 314 314 314 314
311 311 310 310 310 310 310 310 310 310 310 310 310 310 310 310 310 311 311 310 311 311 311 312 311 312 312 313 313 314 314 316 316 314 314 314 314 315 316 316 316 316 315 314 314 314 315 315 315 315 315 313 314 315 315 317 317 319 320 316 316 316 316 318 317 317 317 316 314 314 315 315 315 315 315 314 315 317 316 316 315 314 315 314 314 314 314 314
311 311 310 310 310 310 310 310 310 310 310 310 310 310 310 310 311 311 311 311 312 312 313 313 313 314 315 315 316 316 316 316 316 315 316 315 315 316 316 316 316 316 314 314 314 314 314 315 315 314 315 314 313 314 314 315 316 319 321 316 316 316 314 317 316 316 316 315 314 314 314 313 314 315 315 314 316 317 316 315 314 314 314 314 314 314 314 314
311 311 310 310 310 309 309 309 310 309 310 310 310 310 310 311 311 312 313 314 315 316 316 317 317 318 319 319 319 319 319 319 318 318 317 316 316 316 316 316 316 315 314 314 313 314 314 314 315 314 314 314 313 313 313 314 314 318 321 316 314 315 314 316 315 315 315 314 314 313 312 312 314 314 313 314 317 317 315 314 314 314 314 314 314 314 314 313
310 310 310 309 309 309 309 309 309 309 310 310 310 311 312 313 314 315 316 318 319 319 320 320 320 320 320 319 318 319 320 320 321 320 319 317 317 317 317 317 316 315 314 314 314 313 314 314 315 314 314 314 314 314 313 315 316 316 317 314 313 314 314 314 314 314 314 314 314 313 312 313 313 313 313 316 317 315 314 313 313 313 314 314 314 313 314 313
308 309 308 309 308 308 309 309 309 310 310 311 312 314 315 317 318 319 319 319 319 318 318 318 318 317 317 316 316 319 320 320 321 321 320 320 319 319 318 317 316 315 314 314 314 313 314 315 315 315 315 315 314 314 312 315 316 314 313 313 313 313 313 313 313 314 313 313 312 313 314 312 311 313 316 317 315 314 314 313 313 313 313 313 313 313 313 313
307 307 308 308 308 309 309 310 311 312 313 315 316 318 319 319 319 318 318 317 317 317 316 316 316 315 315 315 315 317 319 319 320 320 321 320 320 319 318 317 316 315 315 314 314 314 314 315 316 316 316 315 314 314 313 313 314 313 312 313 313 312 313 313 313 313 313 313 313 313 312 311 311 313 317 317 314 313 313 312 312 312 312 312 313 313 313 313
307 307 308 308 309 310 311 313 314 315 317 318 319 319 318 317 317 316 316 316 317 317 316 316 316 315 316 314 315 317 318 318 318 318 318 318 319 319 318 316 315 315 316 316 316 315 314 315 316 316 316 315 314 314 314 314 313 313 312 314 316 314 315 314 312 312 312 314 314 312 314 316 314 315 317 316 314 313 311 312 311 311 312 312 312 312 312 312
308 309 309 310 312 313 315 316 318 318 318 318 317 316 315 316 316 316 316 316 316 316 316 316 315 315 315 314 316 317 317 317 317 317 316 317 318 318 317 315 315 316 317 319 318 315 314 315 316 316 316 314 315 314 314 313 312 314 311 312 316 317 320 315 310 312 312 314 313 312 318 324 323 317 316 316 314 313 311 311 311 310 311 311 311 311 311 311
310 311 312 314 315 317 318 318 318 317 316 315 315 315 315 315 316 316 316 315 316 316 316 316 316 316 314 315 317 317 317 317 317 317 316 316 316 317 316 315 316 317 318 318 317 316 315 316 316 316 316 315 315 313 315 315 313 314 310 315 318 316 326 321 310 312 314 313 312 312 318 325 325 317 314 314 313 314 311 310 310 309 309 309 309 309 310 310
313 314 315 317 318 318 318 317 316 315 314 314 314 315 315 315 315 315 315 315 315 316 316 317 317 316 313 314 316 316 316 316 317 316 316 316 316 316 316 316 317 316 317 316 316 316 316 317 316 316 315 314 315 316 320 321 322 321 313 322 325 316 325 325 310 310 315 313 310 313 319 321 319 316 313 312 312 313 310 309 309 308 308 307 308 308 308 308
315 317 317 318 317 316 315 314 314 314 314 314 314 315 314 314 314 314 315 315 316 317 317 318 317 315 314 315 316 316 316 316 316 316 316 316 315 316 316 316 316 315 315 315 315 316 316 317 315 315 314 312 318 326 327 322 325 327 317 322 329 319 320 322 313 310 311 312 310 312 317 319 318 315 314 312 311 312 310 308 307 306 307 306 306 306 306 307
317 317 317 316 315 314 313 313 313 313 314 314 314 314 314 314 315 315 316 316 318 319 318 319 317 316 316 316 316 316 317 317 317 317 316 316 316 316 315 315 315 315 315 314 315 315 315 315 313 314 313 311 316 323 323 319 323 328 318 317 324 320 317 319 319 313 310 313 313 312 314 317 317 314 312 312 310 311 310 307 306 305 305 304 305 305 305 306
317 316 314 313 313 312 312 313 313 313 314 313 313 314 314 315 317 317 319 319 320 319 318 318 317 318 319 317 316 317 317 317 317 317 316 316 316 315 315 315 315 314 314 313 313 314 314 313 313 316 315 311 315 316 318 321 325 328 322 319 321 320 317 318 319 316 313 316 315 314 315 316 317 313 310 310 309 310 308 305 305 304 303 303 303 304 304 304
316 314 313 312 312 312 312 313 313 313 313 313 314 315 316 318 318 319 320 321 320 319 320 318 317 321 321 317 316 317 317 317 317 316 316 316 315 315 315 314 314 313 312 313 313 312 312 312 313 317 316 314 315 315 317 321 323 326 324 323 324 321 319 318 317 314 312 315 316 316 316 317 318 314 309 309 309 308 305 304 303 302 302 302 302 302 302 302
314 313 312 312 312 312 312 313 313 313 313 315 316 317 319 320 321 322 320 320 320 320 321 319 318 319 318 317 316 316 316 316 316 316 316 315 314 314 314 313 313 312 312 316 316 311 311 316 317 317 317 317 315 313 314 316 316 318 318 319 320 319 318 316 317 316 310 313 319 318 316 318 318 315 308 307 309 306 303 303 301 301 301 301 301 301 301 301
312 312 311 311 311 312 313 313 314 314 314 316 318 319 320 320 323 323 321 320 321 320 321 320 318 318 317 317 317 317 317 317 316 316 316 315 314 314 314 313 313 314 314 314 314 311 312 316 318 317 316 315 314 312 312 313 313 313 315 316 317 317 316 314 315 315 310 313 320 317 316 319 319 315 307 305 307 305 303 302 301 300 300 300 300 300 300 300
311 311 311 311 312 313 314 314 315 315 315 317 318 320 321 321 322 322 321 321 321 321 321 320 320 319 318 318 318 318 318 317 316 315 315 314 314 313 313 314 316 318 314 311 313 314 314 316 317 315 312 312 314 314 312 313 314 314 315 315 317 317 316 318 317 314 311 314 321 318 316 319 317 311 306 303 304 303 302 302 300 300 300 299 300 299 300 301
311 311 311 312 313 313 314 315 316 316 317 318 319 321 322 322 322 321 321 321 321 322 321 321 321 320 320 320 320 319 317 317 316 316 315 314 314 313 313 315 317 319 316 315 317 317 317 319 315 311 310 312 315 316 315 314 316 318 318 317 319 317 317 322 320 316 315 314 318 318 315 318 316 308 305 302 301 301 300 300 300 299 299 299 299 299 300 301
311 311 312 313 314 315 316 317 317 318 318 319 320 322 322 322 322 322 320 319 320 321 320 321 321 320 322 320 320 320 318 317 317 317 315 314 314 313 313 314 316 318 317 315 316 317 319 318 312 311 313 314 314 316 317 316 318 320 320 317 319 318 317 320 319 318 319 316 315 315 317 324 320 313 309 304 302 301 300 300 299 299 298 298 299 299 300 300
311 311 313 314 316 317 318 319 319 319 319 320 321 322 322 322 321 320 320 320 322 321 319 320 320 320 321 320 320 319 317 317 317 318 316 315 315 314 313 313 315 319 316 314 314 316 318 314 312 315 317 315 314 317 319 319 320 322 323 319 318 319 318 319 318 318 321 322 316 312 321 332 327 319 312 305 304 303 300 299 299 298 298 298 299 299 299 300
311 312 313 316 319 320 320 320 319 320 320 321 322 322 322 321 320 319 320 324 326 323 319 320 320 320 319 318 318 317 319 319 317 318 317 315 315 315 315 314 314 317 316 313 314 316 317 313 313 319 319 317 316 318 319 319 320 322 322 319 317 316 317 319 319 318 322 324 315 310 318 327 328 325 314 305 305 304 300 299 298 298 298 298 298 298 299 300
312 312 313 317 320 321 320 320 320 320 321 322 322 322 321 321 320 318 320 326 327 323 320 319 318 319 317 316 316 319 323 320 315 316 316 315 314 314 317 316 314 314 312 313 318 318 317 316 315 317 319 319 318 320 320 318 322 324 319 318 319 317 318 321 319 318 321 319 317 317 316 317 322 323 312 305 307 305 302 301 299 298 298 297 298 298 298 299
312 312 315 319 321 321 320 321 321 321 322 323 322 321 321 320 319 319 324 331 327 320 319 317 315 316 315 316 316 317 319 317 316 316 313 314 314 313 316 317 317 317 311 314 324 320 314 317 318 317 318 318 319 322 320 317 321 322 316 316 319 318 321 323 319 319 317 313 320 324 316 314 320 319 309 305 310 308 304 302 300 298 297 297 297 297 298 299
312 313 318 320 320 320 319 321 322 322 322 323 322 322 321 320 318 319 326 330 326 319 317 315 314 313 314 315 314 313 313 312 315 315 312 313 314 313 315 314 314 316 310 312 324 320 312 312 314 317 320 320 320 318 315 318 318 314 311 315 318 318 320 322 320 321 316 314 321 323 317 316 321 322 312 307 311 312 306 302 300 298 297 297 297 297 297 298
313 316 319 320 321 321 321 321 321 322 323 322 323 322 320 319 320 324 328 328 325 319 314 313 313 311 313 315 313 310 310 311 312 313 312 313 313 311 313 312 311 316 315 313 319 318 311 308 309 314 317 316 317 311 308 313 312 308 313 319 321 320 320 321 321 318 316 319 323 321 317 315 319 324 318 310 311 310 306 303 300 298 297 297 297 297 297 298
315 318 319 320 322 323 322 321 320 322 323 322 323 321 320 320 322 329 330 325 324 320 313 313 312 311 314 316 315 311 309 309 310 312 313 312 313 311 311 312 312 318 320 318 319 316 312 312 310 311 310 310 314 313 308 308 307 310 319 322 322 323 320 320 322 319 318 324 323 317 314 313 317 323 318 312 308 305 305 304 301 299 298 297 297 297 297 298
316 319 320 320 322 323 322 321 321 322 322 323 323 321 321 323 325 330 327 322 326 323 316 316 312 311 314 315 315 313 311 311 309 312 315 314 315 314 314 316 317 321 322 319 320 318 316 317 312 310 309 310 318 320 313 312 312 315 320 321 322 323 320 321 323 319 320 321 316 313 313 313 317 319 315 313 307 301 301 302 300 298 297 297 297 297 297 298
317 319 320 321 322 322 322 322 322 323 323 323 323 320 322 326 328 328 324 324 329 321 316 318 314 314 315 314 315 312 312 314 310 311 313 313 315 315 314 316 316 321 322 318 318 318 319 319 313 312 312 311 316 319 316 318 316 315 318 321 323 322 321 323 321 316 318 319 312 311 313 315 318 316 311 308 304 298 298 300 300 299 298 298 297 297 297 297
317 320 321 322 322 322 321 322 323 323 323 323 322 321 323 326 327 327 324 326 326 318 316 317 314 314 314 315 317 313 312 314 311 311 312 312 315 316 316 314 312 318 321 316 316 318 321 322 318 317 315 313 314 315 319 322 315 313 317 318 320 323 324 323 321 318 319 319 313 309 313 321 322 313 303 300 299 297 299 300 300 299 298 298 297 296 297 297
317 319 321 322 322 322 322 322 323 323 323 322 322 323 325 327 326 326 325 324 323 319 317 316 314 314 314 315 316 313 313 315 312 312 314 314 316 319 320 316 313 316 320 318 317 315 317 323 321 314 310 312 313 311 313 318 316 313 313 315 317 321 320 318 318 318 317 318 315 313 317 321 316 306 299 299 298 297 298 298 298 298 297 297 296 296 296 297
317 318 320 320 321 322 322 323 322 323 323 321 322 324 324 326 326 326 324 322 321 319 317 316 316 316 316 316 316 313 312 316 314 312 313 315 316 317 319 319 313 313 317 320 321 317 317 322 318 311 309 310 311 310 309 313 317 313 312 317 317 314 317 319 318 314 312 316 317 316 319 318 311 306 301 299 299 298 297 297 297 297 297 297 296 296 297 297
319 318 319 319 320 321 321 322 322 322 322 321 323 324 323 323 323 324 323 319 318 317 317 320 319 318 318 317 317 316 314 316 314 313 314 315 315 315 318 319 313 311 314 317 321 321 321 323 317 312 314 310 305 309 308 307 313 316 316 318 313 311 317 320 319 318 316 318 317 316 317 317 316 313 304 300 301 300 298 297 296 296 297 297 296 297 297 298
320 319 319 319 319 320 321 322 322 322 320 321 324 324 324 322 318 318 319 317 316 317 319 323 321 319 319 318 318 316 315 317 315 313 316 316 316 316 317 318 313 310 311 311 315 319 319 322 318 311 314 312 307 311 313 308 308 313 315 312 312 317 320 317 317 320 320 318 318 320 318 315 316 315 311 309 305 301 299 298 297 296 296 296 297 297 298 298
320 319 319 320 320 321 322 322 321 320 320 322 325 324 323 323 318 316 317 316 318 319 320 323 323 322 320 319 320 317 315 317 314 314 317 317 316 315 313 315 313 309 308 310 315 318 316 319 320 311 310 312 311 313 318 315 309 308 310 310 312 318 319 318 316 318 320 318 318 321 318 317 317 316 318 318 308 300 299 299 297 297 296 297 298 298 298 298
320 317 317 319 321 321 321 321 320 319 320 322 324 322 321 321 319 317 317 317 318 319 320 324 325 324 322 319 320 319 317 317 314 315 318 317 316 315 312 315 315 310 308 309 313 316 314 316 319 315 310 312 315 315 316 316 313 312 313 314 314 314 315 317 315 315 319 320 321 320 316 319 320 312 313 315 307 300 299 298 297 297 297 298 298 298 298 298
317 316 316 318 320 320 319 319 318 318 320 321 322 321 319 319 319 317 316 317 318 318 319 323 324 324 324 321 320 320 319 318 316 317 318 316 317 317 314 313 313 312 310 310 314 317 315 315 320 319 314 315 319 314 309 312 314 315 315 316 316 315 315 317 315 315 316 317 321 320 315 318 316 307 307 309 304 300 299 298 298 297 298 298 299 299 299 299
316 316 316 317 319 319 318 317 317 317 320 320 320 320 319 318 319 318 316 316 318 318 318 321 322 323 324 323 321 320 320 320 318 318 319 318 320 319 314 311 311 312 314 316 316 315 313 316 320 320 316 316 316 310 304 307 312 314 314 315 316 315 316 318 316 315 315 313 315 316 315 316 310 303 304 304 301 300 299 298 298 298 299 299 299 299 299 300
315 315 315 316 317 317 317 317 317 318 319 318 317 318 318 317 318 318 317 317 318 318 319 320 319 320 322 322 320 319 320 320 318 318 320 321 320 317 313 311 311 312 316 318 317 313 313 317 319 318 317 316 314 312 309 308 310 313 314 314 314 315 316 315 314 315 317 315 315 315 316 315 308 300 299 299 299 299 299 299 299 299 299 300 300 300 300 301
312 312 312 314 315 316 317 318 318 318 318 316 317 317 317 316 317 317 317 318 318 318 320 320 318 318 320 320 319 318 319 320 319 317 319 319 317 313 311 312 313 314 316 318 317 314 315 318 318 318 319 317 315 316 315 313 313 314 316 314 313 315 315 312 311 313 315 316 316 315 314 314 311 304 300 299 299 298 298 299 300 300 300 301 301 301 301 301
311 310 310 312 314 314 315 316 316 318 318 317 317 317 317 316 316 316 317 317 316 316 319 319 317 317 318 318 318 318 318 320 320 318 316 316 314 310 309 311 312 312 314 314 315 314 316 318 318 318 319 318 318 317 315 315 314 313 314 314 312 312 313 312 313 313 314 315 315 314 313 313 310 307 305 303 301 301 300 299 299 301 301 301 302 302 301 300
310 311 309 310 311 311 311 312 312 315 317 317 317 317 317 317 316 315 316 317 315 315 316 316 315 316 318 317 318 319 317 317 319 318 316 316 315 310 307 308 309 310 311 311 311 314 317 316 316 317 318 317 318 317 314 314 315 313 313 314 313 311 310 311 313 313 313 314 314 313 313 313 311 309 308 306 305 306 303 299 299 301 301 302 302 301 301 301
310 310 308 309 310 310 309 309 310 313 314 315 316 316 316 317 316 315 316 316 315 315 315 314 315 317 318 316 317 319 318 316 316 316 316 316 315 310 306 307 308 308 309 308 308 313 316 315 314 315 315 314 315 315 312 311 314 315 314 313 312 309 308 309 312 313 313 313 313 312 311 311 312 311 309 308 308 307 302 299 300 302 302 303 303 302 302 301
308 308 307 308 310 309 309 309 309 311 312 312 314 314 315 316 317 316 315 314 313 315 316 315 315 316 317 317 317 318 317 317 316 315 316 314 313 311 308 308 307 306 308 307 307 311 316 316 313 313 313 312 312 312 310 310 311 312 312 313 311 308 306 308 309 310 311 311 311 311 309 310 310 309 309 308 306 304 302 302 303 304 304 304 303 303 303 303
306 306 306 307 308 308 308 309 308 309 311 311 311 311 312 314 315 314 314 314 314 314 315 315 314 315 316 316 317 317 317 317 316 315 315 314 313 312 312 311 308 305 307 309 307 307 313 315 312 310 312 311 309 308 307 307 308 309 310 310 309 306 305 306 307 307 307 308 308 308 308 307 307 307 307 305 303 303 304 304 304 303 303 303 303 302 302 302
305 305 305 306 306 305 307 308 308 309 309 309 309 309 309 310 312 312 313 314 314 313 314 315 314 314 315 315 316 317 316 316 316 316 314 313 312 312 313 313 310 306 306 309 308 306 309 312 309 308 311 309 305 304 304 304 305 307 308 307 305 304 304 305 305 304 304 305 305 305 305 304 303 302 302 302 302 302 302 301 301 301 301 301 301 300 300 300
305 305 305 306 306 305 306 307 308 309 309 308 309 309 309 309 309 310 311 312 312 313 314 314 314 314 313 314 314 315 314 314 315 314 313 313 312 311 311 311 309 308 308 308 308 308 308 309 306 307 312 309 302 301 302 301 301 302 304 303 301 302 304 304 303 303 303 304 303 303 303 303 302 299 299 300 299 298 298 299 299 300 300 299 299 299 299 299
303 304 304 305 306 306 306 306 307 309 309 309 309 309 309 309 309 309 311 310 310 311 312 312 313 313 313 313 313 314 313 311 309 309 308 308 308 307 307 306 306 308 309 307 307 307 307 308 307 307 311 307 300 299 301 302 303 304 303 302 300 300 302 302 301 301 302 302 303 302 302 303 300 298 299 299 297 295 296 298 299 299 299 299 299 299 298 298
Wind_Speed
11 10 10 9 9 9 9 9 8 8 8 8 8 7 7 7 7 7 7 6 7 7 7 7 7 8 8 9 9 10 10 11 13 15 16 14 8 4 5 4 2 2 2 1 0 1 2 2 2 0 0 2 2 2 3 2 2 2 3 3 0 3 3 4 6 5 3 3 5 7 6 2 5 8 9 9 10 14 18 22 21 15 13 13 13 14 15 16
12 12 11 11 11 11 10 10 9 9 9 9 8 8 8 8 7 7 7 7 7 7 7 8 8 8 9 9 10 11 12 12 14 15 12 7 3 7 7 4 2 2 2 1 0 2 3 2 2 1 1 2 2 2 1 1 2 2 3 2 3 5 5 5 7 5 2 3 7 7 6 4 5 8 8 6 10 15 15 23 25 18 16 17 17 16 15 16
14 13 13 12 12 12 11 11 10 10 10 9 9 9 9 8 8 8 8 8 8 8 9 9 9 9 10 10 11 12 12 15 15 8 1 4 10 9 6 2 2 3 3 2 2 4 5 4 3 2 1 2 2 1 0 1 0 1 3 1 5 6 4 5 7 7 5 6 7 7 6 6 7 8 6 3 9 14 11 17 19 18 23 24 22 20 18 17
15 14 14 14 13 13 12 11 11 11 10 10 10 10 10 9 9 9 9 9 10 10 10 10 11 11 11 11 11 12 13 15 9 3 7 9 9 5 1 5 6 5 4 3 3 5 6 4 3 2 2 1 1 1 1 1 2 1 3 3 4 3 2 7 7 7 6 5 7 8 8 9 10 6 5 4 6 9 14 18 16 19 26 25 22 19 16 16
16 16 15 14 14 13 12 12 12 12 11 11 11 11 11 10 10 10 10 11 11 11 12 12 12 12 12 12 12 12 11 9 2 8 6 5 4 2 5 8 8 7 5 3 4 6 7 5 4 3 2 0 0 0 1 3 3 2 4 5 5 2 2 9 9 8 7 6 9 10 8 9 10 8 9 6 3 8 18 23 22 23 24 21 19 16 13 13
17 17 16 15 14 14 13 13 13 13 12 12 12 12 11 11 12 11 12 12 12 12 12 13 13 12 12 13 12 12 7 2 4 6 5 6 6 7 9 10 9 8 6 4 6 7 7 7 5 4 2 0 1 2 0 2 5 2 4 6 7 6 6 12 13 12 13 11 10 9 9 11 10 12 12 9 13 18 22 23 22 20 17 15 12 11 11 11
18 17 16 16 15 15 14 14 14 13 13 13 12 13 12 12 12 12 12 11 12 13 13 14 14 13 13 13 13 12 10 10 9 9 10 10 11 12 12 11 9 9 6 5 7 8 8 8 7 6 3 1 2 4 1 2 6 4 3 4 6 7 9 13 14 15 16 15 15 12 12 12 10 10 10 15 23 21 20 18 15 14 12 10 8 9 10 11
18 18 17 16 16 15 15 15 14 14 14 13 13 13 13 13 12 12 12 12 13 13 14 15 14 14 13 13 12 10 13 15 12 11 14 14 15 15 13 11 9 9 6 6 7 8 8 9 9 7 3 1 3 3 1 1 3 5 4 5 5 8 11 14 16 18 20 19 18 13 13 16 15 10 10 20 22 15 13 12 10 9 9 9 8 9 8 9
19 18 17 17 16 16 16 15 15 14 14 14 13 13 13 13 13 13 13 13 13 13 14 14 14 13 12 12 9 7 12 12 7 8 11 13 15 15 13 11 9 8 5 7 8 9 9 9 9 8 4 4 4 3 3 1 3 6 7 5 6 11 14 16 18 20 20 18 14 8 12 17 12 7 10 16 12 8 9 7 8 7 7 7 8 8 7 8
19 18 17 17 16 16 15 15 15 14 14 14 14 13 14 14 14 14 14 13 13 13 13 13 13 12 11 11 7 5 8 7 5 7 8 10 12 12 12 11 10 8 6 7 10 11 11 9 8 8 5 4 5 3 3 2 2 5 4 6 10 14 16 16 17 21 18 14 13 9 10 12 3 1 6 7 2 4 6 9 7 6 5 5 6 7 8 8
18 18 17 17 16 15 15 14 14 14 14 14 14 14 15 14 14 13 13 12 12 12 12 12 12 11 11 11 10 8 8 7 7 7 8 9 10 10 11 10 10 9 7 6 9 11 12 9 7 7 4 3 4 3 4 4 2 2 3 7 11 12 16 16 15 18 12 6 8 8 6 5 2 3 7 6 4 7 8 9 5 4 4 3 3 5 6 7
18 17 17 16 15 15 14 14 14 15 15 15 15 15 14 14 13 13 12 12 12 12 12 12 11 11 10 11 16 16 13 13 12 11 12 11 11 11 10 11 10 8 6 6 8 11 12 11 9 8 5 3 3 1 3 3 2 3 3 4 9 9 11 13 8 5 2 1 3 4 3 4 2 7 10 7 6 10 10 9 5 4 4 3 1 2 3 5
18 17 16 16 15 15 15 15 15 16 16 15 15 14 14 13 13 12 12 12 12 11 11 11 10 10 9 11 16 15 13 14 15 14 14 13 12 11 11 11 11 9 8 9 9 11 12 11 9 8 6 4 2 1 2 3 3 3 2 1 5 7 7 7 1 2 0 2 4 5 2 6 6 11 10 6 9 11 11 9 6 6 6 4 3 0 1 2
18 17 16 16 16 16 16 16 16 16 15 15 14 14 13 13 12 12 12 11 11 11 11 10 9 9 10 12 14 13 13 12 12 14 14 13 12 12 13 12 12 11 10 11 11 10 10 10 8 7 6 4 2 1 2 5 3 2 1 1 2 2 5 6 1 2 1 1 6 6 2 6 7 11 7 6 9 12 10 7 6 6 7 6 4 3 1 1
18 18 17 17 17 17 17 16 16 16 15 15 14 13 12 12 12 11 11 11 11 11 10 10 9 8 9 12 13 12 13 14 14 15 15 14 13 12 13 12 12 11 10 10 11 10 9 8 7 5 3 3 2 1 2 4 3 2 1 3 3 2 5 9 5 3 1 1 4 6 2 5 8 11 7 6 11 12 6 6 7 7 8 7 5 5 4 4
20 19 18 18 17 17 17 16 16 16 15 14 13 13 12 12 11 10 11 11 11 11 10 9 9 7 6 9 11 11 12 13 13 14 15 14 12 10 9 9 9 9 10 9 10 10 9 7 5 3 3 3 3 3 3 4 4 3 1 3 3 3 3 7 5 1 1 2 1 2 1 4 5 9 9 10 13 7 4 7 8 8 8 8 7 7 6 5
21 19 18 18 18 18 17 16 16 15 14 13 13 12 12 11 11 11 11 11 11 11 10 8 7 6 8 10 10 10 11 11 11 12 12 10 9 8 7 8 9 9 8 8 8 8 8 6 4 2 1 2 3 4 3 3 4 3 1 2 4 4 2 3 4 4 5 4 0 1 1 6 7 13 15 13 10 3 10 10 9 9 8 9 9 9 8 7
21 19 19 19 18 17 17 16 16 15 14 12 12 11 10 10 10 11 11 11 10 8 8 9 5 2 9 13 12 9 8 10 11 11 9 8 8 7 8 8 8 9 8 6 6 7 6 4 3 1 2 2 2 5 3 5 5 3 2 2 4 3 4 4 4 4 5 4 2 1 3 8 10 13 13 13 8 7 13 13 11 10 10 11 11 12 11 11
21 20 20 19 18 17 17 16 16 15 13 12 11 9 9 10 10 12 12 12 11 6 4 8 10 4 3 6 10 10 7 8 11 10 9 9 9 9 9 8 7 9 9 5 4 6 6 3 3 1 1 3 5 8 9 9 7 6 5 5 3 4 5 5 5 5 2 4 4 4 5 8 10 9 10 14 8 12 15 14 13 13 13 14 14 14 14 15
21 21 21 19 18 17 17 16 15 14 13 11 10 9 9 8 6 7 10 13 16 14 10 10 12 11 6 1 5 8 6 7 9 11 11 10 11 11 10 9 8 7 5 4 3 3 5 3 3 5 6 9 10 11 9 4 5 4 2 2 4 5 6 5 5 5 0 1 6 5 3 7 9 5 9 10 8 13 13 14 15 14 14 15 15 16 16 17
22 22 21 19 19 18 17 16 15 14 13 11 10 8 7 5 3 4 6 10 15 17 18 17 15 16 14 9 7 7 7 8 10 12 12 12 12 10 10 9 6 3 1 3 4 3 4 4 7 10 9 8 7 8 6 2 2 2 1 2 4 5 6 6 6 5 1 2 4 3 3 8 7 4 9 9 8 9 9 12 13 14 15 15 16 17 17 18
23 22 20 20 20 18 17 16 15 15 13 11 10 9 8 7 7 7 6 8 14 16 19 21 22 23 22 19 17 13 10 8 10 14 14 15 15 11 9 7 4 3 2 3 5 2 2 4 12 12 5 3 3 5 5 4 3 2 2 2 4 4 4 7 6 4 1 3 3 2 2 8 5 4 8 10 9 9 10 11 12 13 15 15 16 17 17 20
24 22 20 21 20 19 18 17 16 15 13 11 10 9 9 7 7 8 7 6 12 16 18 21 24 27 27 24 23 21 16 13 11 15 16 17 17 13 10 8 4 3 3 4 5 4 3 7 12 9 4 4 1 4 7 3 2 2 3 3 4 3 1 4 5 4 2 1 2 2 4 6 3 3 6 9 11 13 14 14 13 13 14 15 15 16 18 21
24 22 21 21 20 19 18 17 16 14 12 11 10 9 8 7 7 7 6 4 7 11 15 19 21 24 26 23 20 20 20 17 11 13 19 20 17 11 9 8 5 3 4 7 8 6 7 7 3 3 5 6 5 3 6 5 1 3 5 5 5 5 5 6 4 5 4 3 1 0 2 5 2 2 1 6 10 12 13 13 14 13 13 14 15 17 19 22
24 23 23 22 21 19 18 17 16 14 12 11 10 10 8 6 6 5 3 2 5 6 8 13 14 16 20 18 17 16 15 15 12 12 17 22 19 10 6 8 6 4 6 6 5 5 9 7 1 4 3 4 5 4 5 6 3 4 5 9 10 8 8 6 2 5 4 3 3 3 3 5 3 1 3 4 5 6 8 10 12 10 12 13 15 17 19 22
26 26 25 24 21 18 16 14 14 14 12 11 10 10 8 6 4 2 1 3 4 4 3 7 8 9 12 13 14 12 5 8 13 13 16 21 21 12 5 5 4 4 5 5 3 3 5 5 2 4 4 5 4 5 5 7 4 2 4 8 9 7 6 4 2 2 1 3 3 3 1 5 5 3 4 5 4 4 5 7 8 8 10 12 14 16 19 22
28 27 26 25 22 18 15 13 13 14 12 11 11 11 9 7 5 2 2 3 4 4 5 6 7 7 8 10 15 13 2 4 9 12 19 21 19 13 6 4 3 2 4 5 1 2 4 2 2 4 5 5 4 4 6 7 6 3 4 4 6 6 6 5 5 4 2 2 4 3 1 3 4 4 2 6 6 3 3 4 4 7 9 11 13 16 19 22
30 28 26 25 22 20 18 13 13 15 12 10 11 12 9 8 7 4 3 2 3 4 5 4 6 6 9 14 17 10 3 6 7 8 17 19 16 10 5 6 6 4 4 6 3 4 2 2 3 6 4 4 5 4 6 9 4 5 3 6 6 6 6 4 5 2 1 2 4 5 1 2 5 4 1 5 4 2 3 3 2 5 8 11 13 15 18 21
31 28 27 26 22 20 18 16 15 15 13 10 11 13 11 10 7 4 2 3 2 4 2 5 7 6 10 14 10 4 4 4 2 7 14 15 13 6 2 6 7 5 2 3 5 4 1 2 4 7 5 5 4 1 4 7 4 4 5 6 5 5 5 4 5 3 2 2 4 6 3 2 5 4 1 2 3 5 5 4 4 7 9 11 13 15 17 20
31 30 29 27 24 23 21 21 20 16 14 12 11 12 12 10 6 3 4 5 1 2 3 6 6 5 10 9 2 1 3 1 4 10 10 8 9 4 4 5 4 5 2 3 2 4 1 1 2 4 4 5 5 3 2 3 4 6 6 6 6 5 5 4 3 3 2 2 6 8 7 5 4 5 3 4 3 4 6 5 6 8 11 13 13 15 17 19
31 30 30 29 29 28 24 26 24 19 17 14 13 14 13 6 3 3 7 2 2 2 4 4 3 5 9 6 2 2 2 2 5 10 6 3 5 3 4 4 2 3 2 4 2 4 4 1 2 2 4 5 7 5 4 4 4 6 4 4 3 3 4 4 4 3 0 5 5 5 4 5 4 5 4 4 2 3 6 7 9 11 15 16 16 16 18 20
33 31 30 31 32 30 28 27 24 21 19 16 16 17 11 3 3 5 4 2 1 3 4 4 2 5 6 3 2 4 3 2 3 6 4 3 4 4 3 4 4 3 2 5 2 3 2 3 3 0 3 6 6 5 3 4 5 5 4 5 3 2 3 3 3 0 3 6 4 2 1 3 6 5 3 3 3 3 6 7 14 20 21 21 19 19 19 19
34 33 32 34 33 31 31 28 24 24 23 20 20 15 7 3 6 6 5 2 2 3 4 4 3 5 7 4 2 4 3 2 4 3 2 3 3 4 4 3 6 4 1 4 2 0 2 5 1 1 2 7 8 5 2 1 1 4 4 4 4 1 0 2 3 2 4 5 2 1 1 2 5 3 2 4 5 6 8 10 20 27 26 25 22 20 19 19
33 32 33 34 34 34 33 29 27 26 25 26 21 10 5 7 5 7 9 6 2 2 3 4 6 6 6 4 4 5 3 2 5 4 2 3 3 4 5 4 5 3 3 3 2 4 2 4 3 5 3 7 9 6 6 5 4 4 4 5 4 4 4 4 3 3 4 4 2 2 1 2 3 1 2 4 3 3 1 11 22 26 25 25 22 21 20 19
32 32 34 34 36 38 34 32 30 25 28 31 17 5 8 10 3 4 8 5 2 2 2 3 6 6 4 3 3 5 4 2 4 4 2 4 4 4 4 6 7 4 4 3 2 2 3 5 6 2 1 7 8 4 6 7 3 2 3 4 2 4 4 2 3 5 3 3 3 2 3 4 4 1 2 1 3 5 7 15 21 22 23 23 22 21 21 20
31 33 35 36 38 39 34 33 30 27 33 28 10 6 11 7 3 4 4 4 5 6 6 2 3 4 4 3 2 5 3 1 4 4 2 3 3 5 4 4 8 8 5 5 3 2 2 4 5 2 1 3 5 4 4 3 3 2 2 3 4 4 5 2 2 1 3 1 4 2 3 4 1 0 2 3 4 4 5 11 17 20 21 21 22 21 21 21
34 35 36 38 40 38 35 33 29 32 36 24 7 9 7 2 4 4 2 4 5 8 8 4 3 5 5 4 4 7 4 2 4 3 3 3 3 5 4 4 7 12 11 6 2 3 4 3 5 1 1 1 2 5 4 3 3 5 3 5 3 2 4 3 1 3 3 3 4 1 4 4 2 2 2 3 1 2 3 7 12 16 19 21 22 23 22 21
38 37 39 41 40 37 37 34 32 37 33 15 9 12 4 2 5 3 2 4 5 6 6 4 5 5 6 5 4 6 5 4 5 4 4 3 3 5 6 4 5 11 14 9 1 2 4 2 6 0 2 2 2 5 4 4 2 4 3 3 4 3 1 2 2 2 1 3 4 3 4 3 4 4 2 4 8 8 7 7 9 14 19 22 24 25 24 23
40 34 33 40 41 38 37 35 35 36 23 7 10 11 3 2 5 4 6 4 3 5 5 4 4 2 4 6 4 5 6 6 6 5 4 3 3 4 6 3 3 5 10 10 5 2 3 2 4 2 1 1 3 2 3 2 2 3 2 1 2 2 4 3 2 3 2 3 3 5 5 4 5 5 6 9 11 12 11 9 9 14 21 26 28 29 27 25
39 23 16 32 41 38 36 34 32 27 12 5 8 7 2 3 4 5 9 5 1 2 3 3 4 3 4 4 2 4 5 5 7 5 3 4 3 3 3 3 3 2 4 7 5 1 2 2 3 3 3 1 2 2 5 6 3 2 2 2 1 1 2 1 1 2 3 3 3 3 5 6 4 3 6 8 8 11 14 11 11 17 24 29 31 31 29 27
33 12 6 22 32 33 34 29 21 13 5 4 4 2 2 3 3 5 7 7 3 2 2 3 3 3 4 3 2 3 4 4 5 4 3 4 3 2 3 4 6 5 4 3 3 2 2 2 3 2 1 3 4 4 3 5 4 4 5 5 5 4 3 1 3 2 2 3 4 4 6 7 4 1 3 5 4 10 15 15 15 21 28 31 31 30 29 27
25 7 6 17 24 32 33 17 6 6 5 5 4 3 3 3 4 6 6 6 4 1 3 2 1 2 4 3 2 3 5 4 4 4 2 4 4 3 4 5 7 8 6 3 3 3 2 3 3 2 3 5 5 3 2 3 2 3 3 3 3 4 4 4 7 3 2 1 2 2 4 5 2 1 2 4 6 12 19 20 19 24 30 31 30 29 28 26
18 7 9 19 26 33 27 8 3 6 4 2 3 3 4 3 3 6 6 5 4 2 2 1 1 3 3 2 3 4 4 3 4 4 2 3 4 2 5 7 7 7 6 2 2 2 2 2 2 1 3 2 4 4 2 2 2 1 2 1 3 3 2 4 5 2 3 3 2 1 5 4 1 2 3 0 5 13 20 22 21 24 28 29 29 29 28 27
12 7 9 20 29 30 18 4 5 8 4 2 3 3 5 3 4 6 6 6 5 4 3 3 3 4 2 2 4 5 5 3 3 4 3 3 3 1 4 8 7 4 3 3 4 5 4 2 3 1 2 2 3 3 2 2 1 2 2 1 2 3 3 2 1 3 1 4 6 3 7 5 2 3 4 5 5 9 15 20 20 22 26 29 31 32 31 29
10 5 5 16 26 23 11 3 3 6 6 6 5 6 5 2 6 11 9 7 7 6 4 3 4 4 3 3 3 2 4 4 2 3 3 2 1 0 2 6 7 4 3 4 7 7 4 2 3 4 5 6 3 2 2 2 1 2 2 3 4 5 6 3 2 3 4 4 6 6 7 3 3 3 3 3 3 5 10 15 16 18 23 29 33 33 32 31
7 3 1 6 14 14 8 3 2 3 6 8 6 7 9 5 4 9 10 8 7 7 4 2 4 4 3 4 4 3 5 4 2 2 3 4 3 1 0 3 6 6 6 6 10 7 2 1 4 7 9 8 5 4 3 3 4 4 4 6 6 5 6 5 4 4 5 3 5 8 4 0 3 3 2 3 4 5 7 10 14 18 22 26 30 31 32 31
5 3 4 4 4 7 6 4 4 2 3 6 4 3 10 11 3 4 9 7 7 9 3 2 3 5 4 6 6 5 6 4 3 3 3 3 2 2 1 1 2 5 5 7 11 7 2 3 7 9 10 6 3 4 3 3 5 7 7 8 7 5 6 7 6 6 5 5 9 7 5 3 8 7 6 7 7 6 7 11 16 20 23 23 23 25 29 31
4 3 7 7 3 3 6 5 6 4 1 3 2 1 4 10 7 5 6 3 5 10 5 0 4 7 7 8 6 4 5 4 4 4 3 2 2 1 1 1 1 4 4 5 7 6 3 4 6 6 7 4 3 4 3 3 4 4 6 8 8 7 7 8 9 10 8 7 9 5 6 8 10 6 7 10 11 10 12 15 17 19 21 21 20 22 25 27
4 3 6 9 4 2 6 6 6 6 3 1 1 1 1 6 7 3 2 2 2 6 7 5 7 8 8 7 6 5 6 6 5 6 5 4 4 3 2 1 2 4 4 3 2 3 3 3 2 3 4 3 2 2 3 4 3 3 7 9 6 7 8 8 10 9 5 5 8 6 6 9 9 6 8 11 13 12 13 15 16 17 19 19 20 22 24 24
7 4 6 8 3 2 6 6 6 6 6 4 3 4 3 3 5 3 1 4 3 2 6 9 8 7 8 8 8 8 9 9 8 8 8 6 3 4 4 3 3 3 2 3 2 1 2 2 2 3 2 1 1 0 3 2 3 4 10 10 3 5 7 9 9 4 2 6 10 9 8 10 10 8 8 11 12 12 15 18 19 19 19 20 21 22 22 22
13 10 9 8 4 3 5 5 5 5 4 5 6 5 4 6 10 7 3 7 10 5 5 10 10 5 5 7 10 13 14 12 10 11 13 12 9 7 6 5 9 8 4 4 2 1 3 1 2 3 3 3 1 3 3 3 2 5 13 12 6 6 8 9 6 5 8 11 10 6 7 10 9 4 7 11 13 14 17 21 22 22 21 20 20 20 20 20
16 14 12 8 3 5 6 3 4 5 4 6 8 7 7 10 12 9 4 7 13 13 10 11 10 5 4 8 13 17 18 12 7 8 12 12 9 6 3 3 8 8 6 6 2 1 4 3 2 3 4 3 2 3 4 4 2 8 12 10 11 10 11 9 5 8 10 8 6 7 9 10 5 2 4 9 11 12 16 20 21 22 20 19 19 18 17 17
Wind_Direction
223 222 221 220 219 219 221 221 221 222 223 225 227 228 231 233 238 244 247 252 255 260 267 273 282 287 293 298 303 308 312 315 314 313 306 301 292 237 192 184 128 53 27 27 253 219 206 169 147 126 92 109 70 67 78 56 45 38 87 95 269 194 194 186 185 187 161 252 285 323 321 280 296 313 319 311 290 294 304 305 307 305 306 311 313 316 315 314
223 223 223 222 221 222 223 224 225 226 228 228 230 233 236 237 241 248 251 256 259 263 269 273 280 284 290 297 301 306 310 313 314 312 304 293 189 155 150 144 98 21 3 348 240 197 202 193 191 202 133 104 66 72 87 354 57 66 103 105 244 201 209 202 187 199 181 271 279 298 302 270 276 301 315 305 295 308 313 311 316 324 335 343 339 332 324 318
224 224 224 223 223 223 224 225 226 228 231 231 234 237 239 240 243 249 253 257 261 265 270 274 279 283 289 294 299 304 310 315 314 313 323 133 139 138 130 104 350 342 331 308 225 199 206 215 219 204 113 75 65 115 147 302 134 76 99 118 248 215 234 242 220 234 248 272 280 297 299 280 287 296 293 280 306 312 305 303 313 325 335 340 337 332 327 323
226 225 224 224 224 224 225 225 227 230 231 232 234 237 239 242 245 250 255 259 264 268 270 274 277 281 285 289 296 300 313 319 305 161 121 127 137 138 57 336 330 326 312 291 239 216 220 222 219 187 124 52 19 218 229 222 211 172 144 183 233 189 255 270 265 275 271 265 274 296 310 303 308 306 279 306 334 309 299 305 309 316 326 333 333 334 332 330
226 227 226 225 226 226 227 227 229 231 232 234 237 240 244 245 248 251 256 260 264 267 270 273 275 278 283 285 292 297 318 337 196 155 146 162 175 249 316 319 315 317 306 262 234 224 223 214 195 177 154 348 107 245 265 207 183 184 216 238 250 192 258 283 291 295 287 290 290 303 315 302 308 304 289 301 282 269 295 310 314 315 322 330 333 336 335 333
229 229 228 228 229 228 229 231 232 233 235 237 239 242 245 246 250 251 254 259 263 267 269 271 273 276 281 283 287 292 301 300 192 184 209 225 239 270 295 300 297 306 298 242 226 219 217 206 192 189 172 37 192 198 254 191 193 220 264 261 264 248 254 280 289 289 288 294 292 298 299 292 301 299 295 284 266 278 298 308 313 320 328 335 340 343 344 346
232 231 230 231 231 231 233 234 236 237 239 240 242 245 247 249 251 254 257 262 266 269 271 272 275 276 280 282 284 287 270 257 253 242 242 243 250 264 278 282 283 297 284 231 221 213 212 204 199 192 158 67 211 208 222 212 201 199 269 272 275 270 264 280 290 289 287 285 285 290 286 280 281 287 301 288 280 292 305 308 316 330 342 349 0 3 359 356
233 232 232 232 233 234 236 238 240 241 243 244 246 248 251 254 256 260 264 268 271 273 273 274 277 277 280 281 282 280 266 267 272 255 248 246 250 260 267 267 273 288 271 224 217 212 215 209 204 197 174 200 202 199 183 259 215 185 235 268 282 284 281 288 292 288 286 285 288 288 271 270 274 275 282 281 286 305 309 317 343 351 354 357 6 13 7 352
235 233 232 233 234 236 238 239 242 244 246 248 251 254 257 261 264 267 269 272 274 273 275 275 276 278 278 276 275 275 271 274 273 248 244 245 249 254 256 257 261 276 264 221 212 212 216 212 210 210 218 221 202 202 157 153 248 199 212 254 278 287 289 291 286 283 285 285 286 277 270 279 285 279 267 272 285 308 313 352 13 4 2 358 359 0 352 339
237 236 235 235 235 237 240 241 244 247 250 253 257 261 263 266 268 270 271 272 273 272 274 274 275 276 274 269 250 250 273 269 253 243 240 245 248 247 245 247 254 264 262 234 218 215 216 217 216 210 223 218 190 203 173 161 231 207 226 264 273 283 289 287 280 282 284 281 274 249 265 285 281 162 261 272 319 315 344 33 23 10 17 8 358 341 336 332
238 238 237 237 237 239 241 243 248 250 255 259 261 264 265 267 268 268 269 270 270 271 272 272 275 271 269 262 227 226 263 262 254 250 242 246 246 242 237 239 248 249 249 247 234 223 219 222 217 200 211 204 182 217 225 217 233 255 303 294 286 296 296 284 276 282 284 278 262 227 251 292 143 171 250 262 2 352 17 50 42 37 47 33 0 331 327 321
236 236 236 237 239 241 244 247 251 254 258 259 261 262 263 264 265 268 269 270 271 270 271 271 271 268 267 255 240 248 266 265 262 259 253 250 244 240 237 234 231 224 232 259 256 237 225 223 220 217 223 193 176 264 236 237 294 301 335 311 301 333 313 280 265 271 243 226 250 192 273 305 190 216 241 266 329 352 27 59 63 80 93 89 43 322 320 312
235 234 236 238 240 243 246 249 252 254 256 256 258 258 260 262 265 268 269 270 272 270 272 270 269 269 260 250 255 264 267 261 259 259 257 250 239 233 229 225 222 228 246 258 255 242 228 222 221 226 227 198 186 193 246 295 326 291 346 351 306 352 319 276 160 141 106 264 215 151 256 280 255 236 243 301 332 351 26 56 68 91 106 114 122 66 329 316
235 235 237 240 242 245 247 249 250 251 252 252 254 255 258 261 263 266 267 269 270 269 271 269 269 265 249 251 266 267 256 252 249 250 253 248 236 228 226 229 238 250 257 249 239 232 226 219 219 223 222 215 208 201 304 338 353 284 344 31 340 345 276 295 26 187 340 288 194 147 210 261 274 272 283 351 349 351 17 63 78 92 106 115 117 105 82 48
237 238 239 241 242 244 245 246 246 247 248 248 250 253 255 258 259 261 263 265 265 267 269 269 268 259 252 261 266 260 251 247 245 246 248 246 240 235 236 239 244 248 243 232 225 219 214 208 209 209 201 199 174 120 348 347 2 21 310 303 329 193 263 311 324 203 199 245 171 143 195 268 277 286 309 6 349 342 8 81 87 94 100 104 105 98 91 78
240 240 240 240 240 241 242 241 242 242 243 245 247 249 251 253 256 258 259 261 263 265 267 270 265 250 257 271 264 253 249 244 244 245 243 243 243 240 238 234 232 232 227 221 218 212 205 201 199 194 184 163 122 89 40 353 334 359 193 247 272 207 269 319 333 357 106 110 113 140 215 279 280 279 296 342 349 350 98 105 95 94 90 90 90 88 91 90
239 239 238 237 237 238 238 238 239 239 239 241 243 245 249 253 256 258 257 258 261 263 266 266 260 254 256 260 256 248 243 239 238 238 238 237 232 227 223 219 217 218 213 205 206 203 199 194 180 187 151 99 106 99 64 315 287 313 337 237 248 210 216 294 310 352 46 84 304 357 226 254 272 277 291 338 4 87 120 111 101 91 84 84 82 81 82 83
236 234 233 233 234 234 234 235 235 235 236 237 240 245 250 255 258 259 259 260 258 263 269 244 215 266 260 245 240 241 239 230 228 230 229 219 210 206 205 212 211 200 183 174 190 184 185 177 143 146 37 66 119 122 166 233 215 209 196 211 257 240 224 248 266 308 17 27 268 227 246 260 274 277 301 355 28 109 112 112 105 93 88 84 80 77 75 75
232 230 230 229 229 230 230 230 231 232 233 234 240 244 252 261 265 264 260 255 240 230 255 219 193 186 262 241 228 227 228 221 222 225 219 206 199 197 195 199 192 179 161 152 183 173 163 118 98 185 198 184 191 175 199 212 184 183 183 171 205 241 250 243 249 266 329 348 282 239 240 262 272 279 331 3 46 100 105 107 97 91 89 84 82 78 75 76
228 227 229 227 225 225 225 225 227 229 229 231 238 244 252 259 271 271 256 247 240 236 244 232 215 221 235 231 201 209 222 226 226 221 212 203 197 190 182 176 168 166 157 157 183 163 148 147 193 220 209 202 208 202 206 195 131 133 133 156 206 233 266 265 260 280 3 298 279 268 264 272 273 297 357 9 57 79 85 92 88 89 89 86 87 82 80 79
224 225 226 223 222 221 219 221 223 226 227 228 233 237 239 228 228 280 271 261 256 249 249 249 245 242 241 238 226 228 237 237 232 219 209 200 189 181 178 170 150 164 218 139 122 110 138 177 227 229 214 203 201 199 214 249 98 97 142 249 264 237 257 264 257 289 25 167 272 326 316 278 280 340 10 27 59 53 62 86 86 90 90 90 90 86 87 88
222 221 219 218 218 216 216 218 220 224 226 227 231 232 233 231 239 265 286 283 271 259 251 249 248 247 244 240 243 247 241 234 227 214 206 193 185 185 182 166 146 181 196 112 99 87 136 215 241 237 203 139 106 135 175 215 191 136 138 207 266 247 274 284 278 311 33 153 273 323 257 273 306 29 24 40 64 61 73 89 90 94 94 92 92 92 95 98
221 217 213 214 213 213 214 216 220 224 225 227 231 230 234 240 246 262 278 285 279 269 254 247 244 244 244 242 243 242 231 227 225 212 205 192 186 190 181 164 153 156 165 178 163 149 181 239 247 236 162 149 181 116 126 139 154 156 148 165 248 253 308 282 291 332 6 105 262 221 224 272 315 67 42 54 78 80 83 91 91 94 94 93 98 99 100 100
218 211 209 208 208 209 211 214 220 224 226 228 229 226 228 234 238 261 274 278 286 274 254 245 242 242 243 241 239 234 226 225 224 212 204 194 184 183 190 178 148 150 199 202 182 180 221 242 243 124 136 174 207 160 131 139 218 236 201 191 229 238 214 227 279 338 346 8 10 138 302 292 265 194 83 77 86 81 81 87 85 88 95 100 106 105 103 102
214 208 203 200 202 204 207 215 219 223 227 225 224 219 215 219 226 252 281 305 287 274 252 237 233 237 236 233 230 221 219 224 223 213 203 197 188 174 187 184 163 203 212 182 172 212 247 248 134 92 110 156 190 211 175 163 197 286 233 206 217 224 217 228 307 9 8 342 343 30 338 293 306 281 182 136 82 70 71 76 80 87 99 106 108 107 107 106
212 208 201 197 197 197 206 217 218 221 224 220 214 207 205 203 200 230 64 31 287 247 195 200 207 216 217 218 207 188 195 232 219 209 196 195 196 181 165 176 171 216 185 146 160 224 254 254 180 150 137 139 184 242 220 167 145 295 248 205 209 204 192 203 170 103 176 252 293 36 230 267 315 316 195 149 95 76 66 64 79 95 104 111 112 113 113 109
212 209 201 195 191 191 204 214 214 213 212 211 202 191 194 187 164 123 66 4 279 197 152 168 172 183 197 185 170 160 161 199 183 192 188 187 194 186 181 187 162 197 157 130 169 237 224 245 134 137 123 138 188 242 223 159 128 248 248 153 159 168 173 180 155 153 221 252 319 360 135 261 287 283 209 130 110 87 75 65 80 105 115 121 122 121 119 115
211 208 199 191 187 194 201 203 208 207 199 196 186 181 179 169 159 114 86 297 266 134 131 165 156 168 175 165 163 157 139 144 140 183 183 181 188 184 200 207 173 176 155 141 200 255 195 204 197 160 135 177 204 229 194 158 148 244 213 114 127 145 147 136 120 125 348 34 313 302 1 272 264 272 28 118 137 206 181 176 155 137 136 136 134 130 124 120
210 206 198 187 187 199 204 204 205 199 190 180 175 178 167 154 143 85 87 241 205 113 129 157 151 160 157 158 171 161 123 129 120 167 171 177 185 175 189 201 166 146 131 144 202 247 138 214 215 157 155 207 208 276 181 169 190 195 134 94 72 75 82 76 97 107 38 61 248 247 193 218 271 278 213 145 225 228 188 187 192 166 156 150 144 138 130 124
211 208 196 186 191 202 205 209 203 189 184 180 175 173 160 148 122 91 220 229 157 121 130 148 163 163 148 145 181 196 136 87 109 138 150 170 178 155 130 162 139 124 63 12 207 247 306 269 232 155 173 188 146 75 78 133 148 136 107 65 42 32 44 44 62 87 43 273 243 233 200 189 267 283 216 182 208 192 164 170 191 179 170 164 155 146 137 131
209 207 196 188 196 202 204 210 202 188 187 184 177 170 158 146 106 184 221 216 69 128 122 140 180 151 149 147 167 184 110 57 134 139 138 148 160 149 121 136 110 90 4 328 284 301 332 334 263 205 169 135 104 68 45 57 95 110 86 72 60 341 15 26 357 44 92 253 259 261 219 181 227 264 237 216 220 182 176 178 179 181 179 172 163 153 145 139
208 206 198 192 198 205 207 210 202 192 193 189 184 175 154 155 221 209 212 85 117 202 157 165 188 155 159 135 140 171 125 116 163 145 142 137 158 186 173 170 163 96 322 248 247 335 299 243 267 291 182 161 114 70 35 13 39 89 97 93 89 323 360 358 311 3 229 250 265 283 201 196 236 244 232 247 275 269 258 218 180 175 177 173 166 160 153 148
208 205 201 196 201 209 210 209 204 199 200 194 190 179 146 213 225 189 178 177 195 189 142 139 133 139 148 138 179 182 135 174 187 159 142 124 151 216 249 214 163 130 184 203 185 13 282 295 290 116 244 196 160 134 163 250 124 146 147 131 131 137 105 279 270 267 271 268 274 278 182 254 273 265 218 258 288 295 282 229 186 175 173 171 167 164 161 157
210 208 207 202 204 209 208 209 208 205 206 199 189 174 173 225 221 158 179 207 208 116 107 122 120 124 148 170 207 176 138 210 177 139 105 119 144 221 246 235 182 126 98 139 167 174 197 296 213 181 213 184 176 176 162 143 145 178 159 136 146 153 170 222 222 211 261 285 292 286 220 206 224 250 237 251 302 348 156 177 173 172 171 169 168 169 167 163
210 210 211 210 212 212 209 209 209 213 212 200 186 176 203 215 209 157 184 192 170 117 67 94 118 127 180 216 220 184 181 220 161 128 131 157 174 197 201 209 193 159 130 158 217 166 167 258 248 254 179 163 174 180 134 113 126 204 125 111 163 181 163 200 204 176 186 299 290 220 224 221 187 194 306 1 51 64 113 148 159 166 172 173 174 174 172 169
211 210 212 216 218 216 214 211 212 221 214 196 184 216 212 213 183 177 180 154 161 147 117 92 103 126 195 209 214 210 202 159 148 150 188 186 205 206 204 219 191 178 169 162 193 163 141 268 276 340 24 151 163 167 138 133 173 159 129 174 212 173 123 112 268 59 87 265 272 196 237 286 313 49 349 33 59 70 114 149 160 167 172 176 179 178 176 174
211 212 215 218 219 218 218 215 217 221 209 193 199 224 214 229 180 180 198 145 143 142 136 160 185 166 185 190 200 200 186 144 149 163 196 200 223 196 200 246 186 184 198 184 202 199 153 261 277 153 151 282 117 124 86 49 127 127 179 209 187 113 88 98 249 344 36 247 272 212 216 255 255 250 337 19 174 188 182 177 172 174 178 181 183 182 181 178
210 213 218 220 220 218 217 218 220 215 204 193 224 223 208 213 188 167 201 161 124 138 153 187 194 176 181 188 194 180 172 173 164 173 188 201 238 178 168 221 184 189 206 192 206 256 140 231 283 321 147 289 32 99 74 8 61 125 178 181 115 134 153 94 167 227 246 245 278 290 260 238 211 213 212 213 211 201 197 195 188 187 187 187 188 187 185 182
210 209 220 223 222 220 219 219 214 206 199 201 223 219 186 176 203 192 188 174 110 151 176 193 181 157 171 172 164 164 176 180 167 175 186 183 225 181 155 189 183 198 206 182 180 251 114 165 271 329 348 289 23 95 177 233 27 75 106 76 58 153 168 151 158 172 189 226 265 297 303 272 231 204 185 204 205 187 184 193 197 197 193 191 191 189 188 187
208 203 223 222 218 220 217 210 201 197 200 215 210 211 160 162 208 210 192 183 99 149 192 195 165 153 161 154 151 169 174 179 169 177 200 181 193 202 180 164 143 152 188 175 179 179 98 167 236 302 324 198 181 208 192 186 170 135 149 178 231 138 132 199 215 133 141 178 217 267 282 268 251 197 189 216 208 182 184 186 190 198 197 197 196 192 191 190
201 200 238 214 212 211 202 194 192 192 206 220 196 180 171 167 179 196 193 187 168 101 122 163 160 157 155 149 183 176 150 158 172 177 209 196 182 210 209 167 153 148 125 140 188 192 152 166 183 232 237 189 228 251 206 196 181 164 184 195 187 166 129 199 249 208 141 172 181 209 261 266 258 203 208 232 208 181 185 181 184 197 200 200 199 196 194 193
193 198 220 199 199 195 188 184 194 187 197 215 193 157 167 158 160 173 173 171 170 100 84 100 119 153 161 162 170 163 148 152 179 184 205 210 197 192 189 168 157 151 128 127 205 189 129 124 136 215 219 215 256 274 166 192 162 135 192 200 161 151 140 186 234 224 148 212 156 149 261 268 266 273 263 248 211 184 184 183 186 196 201 201 200 200 200 199
186 195 200 189 188 188 185 186 209 190 201 195 156 178 195 176 162 167 166 170 169 141 134 151 177 181 189 167 148 162 166 160 174 180 195 216 212 195 173 161 144 136 128 140 201 159 111 117 139 275 303 315 314 333 57 76 79 113 243 158 142 174 169 205 229 169 140 221 160 135 254 253 304 329 350 327 180 172 180 188 191 196 201 201 201 202 203 203
171 167 178 181 185 188 191 201 196 197 208 149 142 202 205 189 181 174 174 187 180 150 155 185 186 186 189 139 143 174 185 179 175 188 197 198 201 183 168 174 168 150 145 168 177 170 171 153 136 172 296 331 338 340 352 344 320 203 237 214 177 168 114 102 132 104 181 210 157 186 248 244 291 334 35 69 126 157 181 193 196 199 200 200 202 205 207 208
150 134 159 182 189 197 210 235 197 201 204 191 195 204 196 205 211 198 188 185 183 165 155 184 171 155 156 141 120 154 191 195 182 190 199 196 219 353 182 204 203 201 220 190 158 154 166 172 152 174 218 229 222 215 220 235 216 193 220 228 216 187 162 153 129 157 227 199 158 214 250 264 314 323 20 49 120 165 194 199 203 206 203 203 207 210 212 213
155 141 142 188 204 219 241 260 215 191 195 200 207 203 200 211 226 203 194 192 193 176 136 117 143 135 157 164 145 170 211 218 183 168 181 192 228 318 357 230 220 217 226 188 156 143 117 193 197 205 227 232 218 217 207 148 153 197 215 209 208 196 177 154 127 182 219 204 213 232 222 219 279 249 230 241 197 197 211 203 206 211 209 210 214 217 217 218
160 171 163 165 222 242 250 250 218 182 164 188 196 200 203 205 202 193 199 201 191 178 151 43 144 162 187 173 165 189 201 201 187 172 166 175 206 330 11 70 173 193 192 165 160 149 105 214 209 214 232 233 186 201 204 157 185 201 208 213 209 190 165 159 183 208 190 199 242 236 148 184 246 223 205 219 209 207 216 209 211 214 214 215 219 222 223 225
159 179 175 168 166 224 230 224 197 183 123 161 186 4 210 207 202 187 195 197 175 176 176 269 194 192 186 168 167 186 179 184 201 184 160 159 158 85 358 6 140 175 160 151 164 148 140 222 203 192 218 209 166 185 163 158 205 198 206 221 207 181 166 172 208 217 191 206 253 237 162 208 239 218 198 214 213 207 212 217 221 220 217 218 221 226 229 233
159 143 174 181 180 233 227 203 158 176 204 158 177 301 227 217 214 192 148 127 171 192 188 206 218 204 190 174 170 185 183 182 203 201 179 179 175 150 154 252 223 190 156 140 168 148 165 212 164 158 204 192 183 214 135 157 216 233 237 236 204 174 177 190 218 226 203 232 266 261 228 235 240 216 204 221 224 221 228 233 231 225 225 229 232 234 237 240
193 175 167 177 198 251 224 194 152 180 215 202 218 227 193 202 222 233 171 158 173 209 192 209 225 196 181 188 191 214 216 191 201 212 178 164 192 191 196 201 168 164 158 151 178 198 185 195 96 126 200 249 250 17 83 139 222 242 253 255 210 160 194 218 229 219 186 245 251 254 263 264 257 231 209 226 232 229 239 244 241 239 239 239 239 241 243 246
207 199 174 164 189 200 191 188 166 178 208 199 211 209 175 209 217 209 223 206 202 203 184 208 226 196 173 201 207 226 229 207 211 217 186 180 195 197 204 191 158 157 171 166 171 189 181 190 56 103 202 243 193 133 121 82 34 266 260 252 209 186 220 231 220 192 208 230 237 246 258 259 259 206 181 220 229 224 233 241 245 249 247 242 242 244 248 250
207 205 190 171 186 189 180 186 174 184 211 205 205 198 191 217 211 185 201 231 215 215 214 211 213 194 188 212 217 230 235 224 226 222 196 194 197 180 176 160 148 155 168 162 147 144 164 158 115 149 206 223 107 127 122 69 0 264 256 226 193 205 232 239 234 220 214 208 205 222 236 246 261 113 179 228 224 218 234 243 246 251 251 249 250 251 253 253